Location: Brno
(49.2000°N, 16.6330°E)
Time: 21:17:22
(UTC+01:00)

BREEZE M DEB (TANK) - Visible Passes

Search period start: 03 March 2015 00:00
Search period end: 13 March 2015 00:00
Orbit: 290 x 12156 km, 49.5° (Epoch: 02 March)

Date Brightness Start Highest point End Pass type
(mag) Time Alt. Az. Time Alt. Az. Time Alt. Az.
03 Mar 8.3 01:07:25 49° S 01:43:06 68° SE 03:02:01 10° ENE visible
03 Mar 8.5 05:02:05 17° W 06:40:24 89° S 07:15:34 10° ESE visible
03 Mar 8.9 20:40:44 10° E 20:54:37 13° E 21:47:14 10° NE visible
04 Mar 8.3 00:35:22 49° SSE 01:04:43 62° SE 02:26:32 10° ENE visible
04 Mar 8.6 04:30:01 22° WSW 06:01:20 90° N 06:41:34 10° ESE visible
05 Mar 8.4 00:03:09 47° SSE 00:27:08 57° ESE 01:50:44 10° ENE visible
05 Mar 8.5 03:57:46 28° WSW 05:21:19 89° N 06:07:22 10° E visible
05 Mar 8.4 23:30:45 44° SE 23:50:19 51° ESE 01:14:33 10° ENE visible
06 Mar 8.4 03:25:20 33° WSW 04:40:27 90° S 05:32:53 10° E visible
06 Mar 8.5 22:58:10 40° SE 23:14:12 45° ESE 00:37:58 10° NE visible
07 Mar 8.4 02:52:43 39° SW 03:58:57 88° SSE 04:58:10 10° E visible
07 Mar 8.5 22:25:24 36° ESE 22:38:43 39° ESE 00:00:54 10° NE visible
08 Mar 8.3 02:19:55 44° SW 03:17:12 85° SSE 04:23:12 10° E visible
08 Mar 8.6 21:52:27 31° ESE 22:03:48 34° E 23:23:15 10° NE visible
09 Mar 8.3 01:46:56 48° SW 02:35:34 82° SSE 03:47:57 10° ENE visible
09 Mar 8.3 05:47:10 10° W 07:30:31 80° SSW 07:58:25 10° SE visible
09 Mar 8.6 21:19:18 26° ESE 21:29:24 28° E 22:44:50 10° NE visible
10 Mar 8.2 01:13:46 52° SSW 01:54:26 78° SE 03:12:24 10° ENE visible
10 Mar 8.4 05:08:13 10° W 06:53:03 84° SSW 07:24:30 10° SE visible
10 Mar 8.7 20:45:58 21° E 20:55:29 23° E 22:05:22 10° NE visible
11 Mar 8.2 00:40:23 53° S 01:14:02 73° SE 02:36:34 10° ENE visible
11 Mar 8.5 04:34:48 15° W 06:14:35 87° SSW 06:50:20 10° ESE visible
11 Mar 8.7 20:12:24 16° E 20:22:03 18° E 21:24:20 10° NE visible
12 Mar 8.2 00:06:48 54° S 00:34:33 68° SE 02:00:25 10° ENE visible
12 Mar 8.6 04:01:11 20° W 05:35:04 89° SSW 06:15:55 10° ESE visible
12 Mar 8.8 19:38:38 11° E 19:49:07 13° E 20:40:17 10° NE visible
